[[{"header":{"parameterUnit":"m.s-1","parameterCategory":1,"la1":30.2991,"la2":30.254,"lo1":-89.0895,"lo2":-89.0444,"dy":0.0017,"dx":0.0017,"nx":28,"ny":28,"refTime":"2023-11-03T09:00:00:Z","depth":0,"parameterNumber":2,"parameterNumberName":"U-component_of_WINDS"},"data":[0,0,0,0,0,0,0,0,0,0,0,0,0,0,0,0,0,0,0,0,0,0,0,0,0,0,0,0,0,0,0,0,0,0,0,0,0,0,0,0,0,0,0,0,0,0,0,0,0,0,0,0,0,0,0,0,0,0,-3.7119,-3.712,0,-3.715,-3.7151,-3.7151,-3.7039,-3.7036,-3.7033,-3.703,-3.7062,-3.7066,-3.7069,0,0,0,0,0,0,0,0,0,0,0,0,0,-3.6963,-3.6966,-3.7119,-3.712,-3.712,-3.715,-3.7151,-3.7151,-3.704,-3.7036,-3.7032,-3.7028,-3.706,-3.7065,-3.707,0,0,0,0,0,0,0,0,0,0,0,0,0,-3.7016,-3.6967,-3.7119,-3.7068,-3.7064,-3.715,-3.7151,-3.7151,-3.7041,-3.7036,-3.7031,-3.7026,-3.7059,-3.7065,-3.707,-3.7207,0,0,-3.7089,-3.7091,0,0,0,0,0,0,0,0,-3.7013,-3.7022,-3.7075,-3.7072,-3.7067,-3.7086,-3.7107,-3.717,-3.7042,-3.705,-3.703,-3.7024,-3.7074,-3.7078,-3.7095,-3.7209,-3.721,-3.7089,-3.7093,-3.7095,-3.7097,0,0,0,0,0,0,0,-3.701,-3.702,-3.7131,-3.7076,-3.7071,-3.7043,-3.7046,-3.7118,-3.7089,-3.7049,-3.7041,-3.7046,-3.7071,-3.709,-3.7095,-3.7211,-3.7089,-3.7094,-3.7098,-3.71,-3.7437,-3.7442,0,0,0,0,0,0,-3.7013,-3.7018,-3.713,-3.7132,-3.7027,-3.705,-3.7053,-3.7085,-3.7088,-3.7084,-3.705,-3.704,-3.7082,-3.7088,-3.7096,-3.7255,-3.7095,-3.7101,-3.7104,-3.7431,-3.7438,-3.7444,0,0,0,0,0,0,-3.701,-3.7024,-3.7129,-3.7073,-3.7084,-3.7058,-3.7096,-3.7088,-3.7107,-3.7089,-3.7084,-3.7075,-3.7078,-3.7087,-3.718,-3.7255,-3.7103,-3.7109,-3.7425,-3.7433,-3.7441,-3.7576,0,0,0,0,0,0,-3.7006,-3.7023,-3.7075,-3.7075,-3.7088,-3.7214,-3.71,-3.7092,-3.7118,-3.7105,-3.7111,-3.7107,-3.7075,-3.7172,-3.7186,-3.726,-3.7114,-3.7418,-3.7429,-3.7438,-3.7565,-3.7588,-3.7608,0,0,0,0,0,-3.7,-3.7113,-3.7079,-3.7093,-3.7152,-3.7218,-3.7226,-3.7186,-3.7124,-3.7176,-3.7164,-3.7107,-3.7244,-3.7182,-3.7197,-3.7275,-3.7413,-3.7426,-3.7437,-3.7556,-3.7584,-3.7607,0,0,0,0,0,0,-3.7123,-3.7112,-3.7074,-3.7189,-3.7206,-3.7199,-3.7264,-3.7217,-3.7252,-3.7239,-3.7188,-3.719,-3.7292,-3.7292,-3.7223,-3.7406,-3.7318,-3.7334,-3.7403,-3.7429,-3.745,-3.7448,-3.7118,0,0,0,0,0,-3.7164,-3.7219,-3.7205,-3.7309,-3.7319,-3.729,-3.7318,-3.7286,-3.73,-3.7307,-3.7302,-3.7319,-3.7365,-3.7397,-3.7439,-3.7564,-3.7564,-3.7625,-3.7646,-3.7664,-3.7678,-3.7743,-3.777,-3.7483,-3.7483,-3.7483,0,0,-3.7248,-3.7248,-3.7286,-3.7333,-3.7342,-3.74,-3.7297,-3.7362,-3.7404,-3.7317,-3.7404,-3.7401,-3.7416,-3.7526,-3.7574,-3.7529,-3.7757,-3.7679,-3.7693,-3.7698,-3.7759,-3.7786,-3.781,-3.7492,-3.749,-3.7489,0,0,-3.7431,-3.7437,-3.7523,-3.7534,-3.7548,-3.7528,-3.7549,-3.755,-3.7545,-3.7631,-3.7566,-3.7615,-3.7697,-3.771,-3.7728,-3.7914,-3.7863,-3.793,-3.8041,-3.8105,-3.8128,-3.8148,-3.8214,-3.8238,-3.7944,-3.7944,-3.7944,0,-3.7534,-3.7618,-3.7573,-3.7643,-3.7665,-3.7588,-3.7675,-3.7687,-3.7715,-3.7732,-3.7681,-3.7782,-3.7786,-3.7897,-3.7943,-3.796,-3.7981,-3.7929,-3.8128,-3.8148,-3.8166,-3.8228,-3.8253,-3.7952,-3.7951,-3.795,-3.795,0,-3.7744,-3.7804,-3.7871,-3.79,-3.7929,-3.8007,-3.7974,-3.8009,-3.7974,-3.796,-3.8048,-3.8051,-3.8092,-3.8116,-3.8083,-3.8222,-3.8194,-3.8137,-3.8047,-3.8202,-3.826,-3.8283,-3.7963,-3.7961,-3.7958,-3.7956,0,0,-3.8006,-3.8008,-3.8034,-3.8045,-3.8055,-3.81,-3.8174,-3.8213,-3.8244,-3.8266,-3.8326,-3.8397,-3.8343,-3.8363,-3.8331,-3.8387,-3.8534,-3.8323,-3.8322,-3.8362,-3.8688,-3.8731,-3.8759,-3.85,-3.8504,-3.8508,-3.8686,0,-3.8186,-3.8312,-3.8273,-3.8401,-3.8455,-3.8382,-3.8446,-3.8459,-3.8447,-3.849,-3.8476,-3.8527,-3.8453,-3.8465,-3.8517,-3.8506,-3.8599,-3.8492,-3.8556,-3.8558,-3.8554,-3.8789,-3.8835,-3.9004,-3.8709,-3.8712,-3.8715,0,-3.8413,-3.8443,-3.8576,-3.8575,-3.8596,-3.8655,-3.8687,-3.873,-3.8743,-3.873,-3.8752,-3.8707,-3.8779,-3.8689,-3.8787,-3.8715,-3.8738,-3.8736,-3.8742,-3.8746,-3.8647,-3.88,-3.9056,-3.9082,-3.875,-3.8748,-3.8745,0,-3.8591,-3.8664,-3.8752,-3.8765,-3.8766,-3.8809,-3.8812,-3.8819,-3.8845,-3.8874,-3.889,-3.8927,-3.8947,-3.8976,-3.8942,-3.888,-3.9045,-3.8952,-3.9036,-3.9038,-3.9075,-3.9073,-3.9339,-3.909,-3.909,-3.909,-3.9089,0,-3.8795,-3.888,-3.8832,-3.8887,-3.8979,-3.8933,-3.9025,-3.9019,-3.9026,-3.9078,-3.9017,-3.9067,-3.9019,-3.9064,-3.9038,-3.9123,-3.9133,-3.9124,-3.9116,-3.913,-3.9131,-3.9145,-3.9133,-3.9096,-3.9095,-3.9093,-3.9092,0,-3.901,-3.8982,-3.9073,-3.9067,-3.9067,-3.9135,-3.913,-3.918,-3.9163,-3.9229,-3.9242,-3.9216,-3.9266,-3.9235,-3.9286,-3.9268,-3.9379,-3.9355,-3.9375,-3.9369,-3.9455,-3.9447,-3.9738,-3.9774,-3.9503,-3.9506,-3.9508,0,-3.9143,-3.9205,-3.9206,-3.9236,-3.9243,-3.9292,-3.9318,-3.9275,-3.9304,-3.9322,-3.937,-3.9415,-3.9449,-3.9532,-3.9518,-3.9556,-3.9533,-3.9632,-3.9538,-3.955,-3.9534,-3.9531,-3.9537,-3.9651,-3.9654,-3.9657,-3.9659,0,-3.9381,-3.9364,-3.9403,-3.9438,-3.9471,-3.9496,-3.9516,-3.9545,-3.9501,-3.9537,-3.9587,-3.9614,-3.9665,-3.971,-3.9743,-3.9745,-3.9695,-3.9689,-3.971,-3.9725,-3.9734,-3.973,-3.9427,-3.9682,-3.968,-3.9678,-3.9677,-3.9676,-3.9559,-3.9611,-3.9619,-3.9665,-3.9675,-3.9695,-3.9742,-3.973,-3.9771,-3.981,-3.9781,-3.9841,-3.9851,-3.9889,-3.9897,-3.9943,-3.9903,-3.9934,-3.9942,-3.9951,-3.9962,-3.9726,-3.9949,-3.9948,-3.9948,-3.9947,-3.9946,0,-3.9794,-3.9795,-3.9838,-3.9867,-3.9904,-3.9853,-3.9872,-3.9906,-3.9959,-3.9972,-4.0006,-4.0064,-4.0107,-4.0095,-4.0134,-4.0173,-4.0151,-4.0184,-4.0181,-4.0182,-3.9996,-3.9974,-4.0201,-4.0201,-4.0201,-4.0201,-4.0201,-4.0201,-3.9921,-4.0006,-3.9989,-4.0079,-4.0079,-4.0137,-4.0152,-4.017,-4.018,-4.0247,-4.0283,-4.0274,-4.0277,-4.0315,-4.0353,-4.0348,-4.0365,-4.0407,-4.0394,-4.0221,-4.0196,-4.0172,-4.015,-4.0411,-4.0411,-4.0576,-4.0578,-4.0579]},{"header":{"parameterUnit":"m.s-1","parameterCategory":1,"la1":30.2991,"la2":30.254,"lo1":-89.0895,"lo2":-89.0444,"dy":0.0017,"dx":0.0017,"nx":28,"ny":28,"refTime":"2023-11-03T09:00:00:Z","depth":0,"parameterNumber":3,"parameterNumberName":"V-component_of_WINDS"},"data":[0,0,0,0,0,0,0,0,0,0,0,0,0,0,0,0,0,0,0,0,0,0,0,0,0,0,0,0,0,0,0,0,0,0,0,0,0,0,0,0,0,0,0,0,0,0,0,0,0,0,0,0,0,0,0,0,0,0,0.1468,0.1468,0,0.1442,0.1442,0.1442,0.1451,0.1452,0.1452,0.1453,0.1426,0.1425,0.1423,0,0,0,0,0,0,0,0,0,0,0,0,0,0.1526,0.1524,0.1468,0.1468,0.1467,0.1442,0.1442,0.1442,0.1451,0.1452,0.1453,0.1453,0.1426,0.1425,0.1423,0,0,0,0,0,0,0,0,0,0,0,0,0,0.15,0.1524,0.1468,0.1469,0.1469,0.1442,0.1442,0.1441,0.1451,0.1452,0.1453,0.1454,0.1427,0.1425,0.1423,0.1394,0,0,0.1417,0.1416,0,0,0,0,0,0,0,0,0.1502,0.1498,0.1469,0.1469,0.1469,0.1451,0.1452,0.1425,0.1451,0.1458,0.1453,0.1454,0.1433,0.1431,0.1424,0.1392,0.1391,0.1417,0.1416,0.1415,0.1415,0,0,0,0,0,0,0,0.1503,0.1499,0.1458,0.1469,0.1468,0.1471,0.1468,0.1447,0.1441,0.1457,0.1458,0.1455,0.1433,0.1426,0.1424,0.1391,0.1417,0.1415,0.1414,0.1414,0.1334,0.1333,0,0,0,0,0,0,0.1505,0.1501,0.1459,0.1457,0.1488,0.1469,0.1466,0.1456,0.1441,0.144,0.1454,0.1455,0.1429,0.1426,0.1423,0.1387,0.1415,0.1413,0.1412,0.1335,0.1334,0.1333,0,0,0,0,0,0,0.1506,0.1501,0.146,0.1479,0.1474,0.1467,0.1455,0.1455,0.1447,0.1439,0.1438,0.1448,0.1429,0.1425,0.1401,0.1386,0.1412,0.1411,0.1336,0.1335,0.1334,0.1316,0,0,0,0,0,0,0.1508,0.1502,0.149,0.1479,0.1473,0.1438,0.1454,0.1454,0.1444,0.1445,0.1432,0.1431,0.143,0.1404,0.1399,0.1384,0.1409,0.1338,0.1336,0.1334,0.1318,0.1314,0.1311,0,0,0,0,0,0.151,0.1486,0.149,0.1484,0.1458,0.1437,0.1434,0.1433,0.1443,0.1431,0.1426,0.1432,0.1389,0.1401,0.1396,0.138,0.1339,0.1336,0.1334,0.1319,0.1315,0.1311,0,0,0,0,0,0,0.1495,0.1484,0.1488,0.146,0.1449,0.1439,0.1424,0.1428,0.1414,0.1416,0.1416,0.1413,0.1388,0.1382,0.1395,0.1352,0.1365,0.1362,0.1356,0.1351,0.1348,0.1349,0.1408,0,0,0,0,0,0.1489,0.1472,0.1464,0.144,0.1434,0.143,0.1421,0.1421,0.1411,0.1406,0.1399,0.1388,0.1373,0.1362,0.1347,0.1318,0.1315,0.1305,0.1301,0.1298,0.1295,0.1279,0.1274,0.1326,0.1326,0.1326,0,0,0.1475,0.1467,0.1456,0.1436,0.1428,0.1411,0.1426,0.1408,0.1395,0.1403,0.1379,0.1374,0.1362,0.1335,0.1323,0.1329,0.128,0.1296,0.1293,0.1291,0.1276,0.1271,0.1267,0.1324,0.1325,0.1325,0,0,0.144,0.1433,0.1412,0.1404,0.1392,0.139,0.1385,0.1374,0.1371,0.1348,0.1354,0.1339,0.1312,0.1303,0.1295,0.126,0.1264,0.1255,0.1237,0.1221,0.1217,0.1213,0.12,0.1195,0.1252,0.1252,0.1252,0,0.1424,0.1399,0.14,0.1381,0.1372,0.138,0.1359,0.1351,0.1335,0.1329,0.1337,0.1304,0.1296,0.1267,0.1259,0.1253,0.1247,0.1256,0.1218,0.1214,0.121,0.1198,0.1193,0.1251,0.1251,0.1252,0.1252,0,0.1379,0.1362,0.1346,0.1331,0.1321,0.1301,0.1299,0.1289,0.1291,0.1288,0.1265,0.1256,0.124,0.1234,0.1236,0.1205,0.121,0.1218,0.1231,0.1204,0.1192,0.1187,0.125,0.125,0.125,0.1251,0,0,0.1332,0.1319,0.1313,0.1307,0.1295,0.1282,0.1263,0.1248,0.1238,0.1228,0.1211,0.1189,0.1197,0.1188,0.119,0.1176,0.1148,0.1186,0.1186,0.1178,0.1114,0.1106,0.1101,0.1152,0.1151,0.1151,0.1114,0,0.1295,0.1261,0.1263,0.1232,0.1216,0.1224,0.1208,0.1199,0.1197,0.1183,0.118,0.1164,0.1176,0.1171,0.1158,0.1154,0.1135,0.1157,0.1136,0.1135,0.1137,0.1095,0.1086,0.1052,0.111,0.1109,0.1108,0,0.1247,0.1236,0.1202,0.1194,0.1188,0.1173,0.1159,0.1146,0.1137,0.1137,0.1128,0.1131,0.1113,0.1129,0.1102,0.1117,0.1109,0.1106,0.1105,0.1101,0.1119,0.1088,0.1042,0.1036,0.1101,0.1102,0.1102,0,0.1215,0.1191,0.1168,0.1162,0.1153,0.1142,0.1137,0.1129,0.112,0.1109,0.1103,0.109,0.1082,0.1072,0.1072,0.1084,0.1045,0.1062,0.1044,0.1043,0.1033,0.1033,0.0983,0.1031,0.1031,0.1031,0.1031,0,0.1172,0.1151,0.1153,0.1139,0.1116,0.1119,0.1096,0.1093,0.1086,0.1072,0.1079,0.1065,0.1068,0.1054,0.1054,0.1032,0.1029,0.1028,0.1027,0.1026,0.1026,0.1019,0.102,0.103,0.103,0.103,0.1031,0,0.113,0.1131,0.1106,0.11,0.1098,0.1081,0.1076,0.1062,0.1062,0.1043,0.1039,0.1037,0.1022,0.1022,0.1004,0.1005,0.0977,0.0981,0.098,0.098,0.0961,0.0963,0.0903,0.0895,0.095,0.095,0.0949,0,0.1102,0.1087,0.1079,0.107,0.1065,0.105,0.1042,0.1045,0.1036,0.1025,0.1013,0.0998,0.0986,0.0961,0.0958,0.0945,0.0947,0.0928,0.0945,0.0944,0.0945,0.0945,0.0943,0.0923,0.0923,0.0922,0.0922,0,0.1052,0.1054,0.1041,0.1028,0.1018,0.1008,0.0999,0.0992,0.0994,0.0984,0.0968,0.0959,0.0941,0.0926,0.0914,0.091,0.0916,0.0917,0.0912,0.0908,0.0908,0.0907,0.0969,0.0917,0.0918,0.0918,0.0918,0.0919,0.1015,0.1002,0.0995,0.098,0.0974,0.0966,0.0954,0.0952,0.0939,0.0925,0.0928,0.0911,0.0904,0.0888,0.0882,0.0869,0.0875,0.0868,0.0866,0.0864,0.0861,0.0912,0.0867,0.0867,0.0867,0.0867,0.0867,0,0.0964,0.0961,0.0948,0.0935,0.0924,0.0933,0.0924,0.0914,0.0899,0.0892,0.088,0.0863,0.0849,0.0846,0.0833,0.0823,0.0825,0.0819,0.0819,0.0817,0.0856,0.0861,0.0817,0.0817,0.0817,0.0817,0.0817,0.0817,0.0936,0.0914,0.0915,0.089,0.0886,0.0869,0.0863,0.0856,0.0851,0.0831,0.082,0.0818,0.0813,0.08,0.0788,0.0787,0.0781,0.0774,0.0774,0.081,0.0815,0.0819,0.0824,0.0773,0.0773,0.0736,0.0736,0.0736]}]]